This demonstration page uses our WeatherBlox Daily Observations layout. Learn more.

Left ArrowRight Arrow

38.83388, -104.82136

Hourly Observations for January 3, 2017

Temp ( °F °C ) Dew Point ( °F °C ) Humidity (%) Winds ( mph kmh ) Pressure ( in mb ) Visibility ( mi km ) Precip ( " mm )
1:48 am 01:48 Mostly Cloudy with Mist and Fog 16 -9 14 -10 93 93 SE 3 6 30.18 1022 1 2 0.00 0.00
2:58 am 02:58 Mostly Cloudy with Freezing Fog 16 -9 15 -9.7 95 95 SSE 6 9 29.69 1006 1 2 0.00 0.00
3:58 am 03:58 Mostly Cloudy with Freezing Fog 15 -9.6 13 -10.4 94 94 SSE 13 20 29.71 1006 1 2 0.00 0.00
4:58 am 04:58 Mostly Cloudy with Freezing Fog 15 -9.7 13 -10.5 94 94 SSE 9 15 29.74 1007 1 2 0.00 0.00
5:49 am 05:49 Mostly Cloudy with Light Snow 14 -10 12 -11 92 92 SSE 15 24 30.24 1024 1 2 0.00 0.00
5:58 am 05:58 Mostly Cloudy with Light Snow Showers 14 -9.8 13 -10.6 94 94 SSE 14 22 29.75 1007 1 2 0.00 0.00
6:04 am 06:04 Mostly Cloudy with Freezing Fog 14 -10 14 -10 100 100 SSE 12 19 30.24 1024 1 2 0.00 0.00
6:33 am 06:33 Mostly Cloudy with Light Snow 14 -10 12 -11 92 92 SSE 8 13 30.24 1024 1 2 0.00 0.00
6:48 am 06:48 Mostly Cloudy with Freezing Fog 14 -10 12 -11 92 92 SSE 14 22 30.24 1024 1 2 0.00 0.00
6:58 am 06:58 Mostly Cloudy with Freezing Fog 14 -10.1 12 -11 93 93 SSE 14 22 29.79 1009 1 2 0.00 0.00
7:28 am 07:28 Mostly Cloudy with Light Snow Showers 14 -10 12 -11 92 92 SSE 8 13 30.30 1026 1 2 0.00 0.00
7:58 am 07:58 Mostly Cloudy with Light Snow Showers 13 -10.3 12 -11.1 94 94 SSE 8 13 29.85 1011 1 2 0.00 0.00
8:58 am 08:58 Mostly Cloudy with Light Snow 14 -10.2 12 -11 94 94 SSE 7 11 29.88 1012 5 8 0.00 0.00
9:13 am 09:13 Mostly Cloudy with Light Snow 14 -10 12 -11 92 92 SSE 7 11 30.33 1027 2 2 0.00 0.00
9:58 am 09:58 Mostly Cloudy with Light Snow 14 -10.1 13 -10.8 95 95 SSE 7 11 29.91 1013 2 3 0.00 0.00
10:18 am 10:18 Cloudy with Light Snow 14 -10 12 -11 92 92 S 5 7 30.36 1028 4 6 0.00 0.00
10:58 am 10:58 Cloudy with Light Snow 15 -9.5 14 -10.2 95 95 SSE 7 11 29.91 1013 6 10 0.00 0.00
11:18 am 11:18 Cloudy with Light Snow 16 -9 14 -10 93 93 ESE 8 13 30.30 1026 5 8 0.00 0.00
11:58 am 11:58 Cloudy with Light Snow 16 -8.9 14 -9.9 93 93 ESE 5 7 29.89 1012 5 8 0.00 0.00
12:58 pm 12:58 Cloudy with Light Snow 16 -9 15 -9.7 95 95 SE 6 9 29.89 1012 5 8 0.00 0.00
1:48 pm 13:48 Cloudy with Light Snow 16 -9 14 -10 93 93 SE 8 13 30.21 1023 9 14 0.00 0.00
1:58 pm 13:58 Cloudy with Light Snow 16 -8.8 15 -9.4 95 95 SE 7 11 29.90 1012 9 14 0.00 0.00
2:58 pm 14:58 Cloudy with Light Snow Showers 17 -8.4 16 -9 95 95 ESE 8 13 29.88 1012 10 16 0.00 0.00
3:34 pm 15:34 Cloudy 18 -8 16 -9 93 93 SE 3 6 30.18 1022 10 16 0.00 0.00
3:58 pm 15:58 Cloudy 17 -8.3 16 -9 95 95 SSE 6 9 29.90 1012 10 16 0.00 0.00
4:03 pm 16:03 Cloudy 18 -8 16 -9 93 93 SSE 8 13 30.18 1022 10 16 0.00 0.00
4:06 pm 16:06 Cloudy with Light Snow Showers 18 -8 16 -9 93 93 S 9 15 30.18 1022 10 16 0.00 0.00
4:58 pm 16:58 Cloudy with Light Snow Showers 17 -8.3 16 -9 95 95 SSE 12 19 29.90 1012 10 16 0.00 0.00
5:18 pm 17:18 Cloudy 18 -8 16 -9 93 93 SSE 7 11 30.18 1022 10 16 0.00 0.00
5:28 pm 17:28 Cloudy with Light Snow Showers 16 -9 16 -9 100 100 SSE 7 11 30.27 1025 10 16 0.00 0.00
5:38 pm 17:38 Cloudy with Light Snow Showers 18 -8 16 -9 93 93 S 7 11 30.24 1024 10 16 0.00 0.00
5:58 pm 17:58 Mostly Cloudy with Light Snow Showers 16 -8.8 15 -9.6 94 94 S 9 15 29.91 1013 9 14 0.00 0.00
6:03 pm 18:03 Mostly Cloudy with Light Snow Showers 16 -9 14 -10 93 93 S 10 17 30.21 1023 10 16 0.00 0.00
6:08 pm 18:08 Partly Cloudy with Light Snow Showers 16 -9 14 -10 93 93 SSW 12 19 30.27 1025 10 16 0.00 0.00
6:28 pm 18:28 Clear 16 -9 14 -10 93 93 S 10 17 30.21 1023 9 14 0.00 0.00
6:42 pm 18:42 Clear with Light Snow Showers 16 -9 14 -10 93 93 S 12 19 30.21 1023 10 16 0.00 0.00
6:57 pm 18:57 Clear 16 -9 14 -10 93 93 S 7 11 30.21 1023 10 16 0.00 0.00
6:58 pm 18:58 Clear 16 -9.1 14 -9.9 94 94 S 7 11 29.91 1013 10 16 0.00 0.00
7:27 pm 19:27 Partly Cloudy with Light Snow Showers 14 -10 12 -11 92 92 S 7 11 30.24 1024 10 16 0.00 0.00
7:32 pm 19:32 Mostly Cloudy with Light Snow Showers 14 -10 12 -11 92 92 SSW 7 11 30.24 1024 10 16 0.00 0.00
7:42 pm 19:42 Mostly Cloudy 14 -10 12 -11 92 92 SSW 7 11 30.30 1026 10 16 0.00 0.00
7:58 pm 19:58 Mostly Cloudy 13 -10.5 11 -11.4 93 93 SSW 6 9 29.93 1013 10 16 0.00 0.00
8:13 pm 20:13 Mostly Cloudy 12 -11 12 -11 100 100 SSW 6 9 30.33 1027 10 16 0.00 0.00
8:58 pm 20:58 Clear 13 -10.5 11 -11.5 92 92 SSW 5 7 29.91 1013 10 16 0.00 0.00
9:58 pm 21:58 Clear 14 -10.2 10 -12.3 85 85 S 5 7 29.91 1013 10 16 0.00 0.00
10:58 pm 22:58 Clear 13 -10.7 9 -12.6 86 86 Calm 29.91 1013 10 16 0.00 0.00
11:58 pm 23:58 Clear 12 -11.3 9 -12.8 89 89 S 6 9 29.87 1012 10 16 0.00 0.00

Powered by AerisWeather